Location: Taukkyan
(23.1052°N, 94.0030°E)
Time: 22:48:57
(UTC+00:00)

COSMOS 2406 - Pass Details

Date: 06 July 2020
Orbit: 844 x 863 km, 71.0° (Epoch: 05 August)

Event Time Altitude Azimuth Distance (km) Brightness Sun altitude
Exits shadow 21:00:39 33° 296° (WNW) 1,411 4.1 -24.7°
Drops below altitude 10° 21:05:37 10° 355° (N) 2,500 6.1 -23.9°
Sets 21:08:20 0° 5° (N) 3,439 7.0 -23.4°
